CST,Max TemperatureF,Mean TemperatureF,Min TemperatureF,Max Dew PointF,MeanDew PointF,Min DewpointF,Max Humidity, Mean Humidity, Min Humidity, Max Sea Level PressureIn, Mean Sea Level PressureIn, Min Sea Level PressureIn, Max VisibilityMiles, Mean VisibilityMiles, Min VisibilityMiles, Max Wind SpeedMPH, Mean Wind SpeedMPH, Max Gust SpeedMPH,PrecipitationIn, CloudCover, Events, WindDirDegrees
2014-1-1,1,-4,-10,-7,-10,-14,83,73,51,30.51,30.41,30.24,10,7,1,16,8,19,0.06,7,Snow,41
2014-1-2,0,-8,-16,-7,-13,-18,91,74,59,30.59,30.51,30.36,10,10,10,15,5,18,0.00,2,,82
2014-1-3,36,18,0,31,13,-6,88,80,72,30.29,29.78,29.47,10,6,1,28,17,35,T,7,Rain-Snow,190
2014-1-4,38,18,-2,31,5,-10,84,75,66,30.38,30.06,29.56,10,10,8,33,14,44,T,6,Snow,330
2014-1-5,-1,-8,-16,-11,-18,-25,78,66,54,30.62,30.51,30.39,10,10,4,32,17,40,T,2,Snow,319
2014-1-6,-8,-13,-18,-15,-21,-25,78,68,57,30.54,30.46,30.32,10,10,10,26,13,33,0.00,2,,292
2014-1-7,9,1,-8,0,-4,-13,76,70,63,30.34,30.24,30.17,10,10,9,8,4,10,T,7,Snow,40
2014-1-8,13,2,-9,6,-2,-11,87,75,63,30.51,30.43,30.34,10,10,10,16,5,23,T,5,,99
2014-1-9,28,20,11,22,12,5,88,79,69,30.35,30.08,29.83,10,10,6,26,18,35,0.00,4,,177
2014-1-10,33,24,15,30,26,17,100,91,82,29.80,29.63,29.51,9,4,0,22,9,29,0.00,7,,206
2014-1-11,34,26,18,24,21,16,92,78,63,29.82,29.71,29.55,10,10,6,18,10,24,0.00,3,,275
2014-1-12,40,37,33,32,29,24,82,71,59,29.65,29.50,29.37,10,10,10,21,9,29,0.00,6,,249
2014-1-13,39,29,19,33,24,17,92,73,54,29.81,29.70,29.53,10,10,10,22,10,28,T,4,,256
2014-1-14,39,22,5,33,16,2,80,71,62,30.29,30.02,29.59,10,8,1,43,23,56,T,7,Rain-Snow,319
2014-1-15,40,19,-2,29,12,-6,95,77,59,30.29,29.96,29.64,10,10,10,21,10,32,0.00,5,,243
2014-1-16,38,22,6,27,15,-4,92,78,63,30.13,29.81,29.62,10,3,0,48,23,63,0.12,7,Fog-Snow,326
2014-1-17,28,13,-2,16,1,-9,75,59,43,30.21,30.08,29.68,10,10,9,22,9,29,T,3,Snow,258
2014-1-18,36,27,17,31,21,13,92,75,58,30.09,29.78,29.51,10,9,0,43,18,56,T,7,Fog-Rain-Snow-Thunderstorm,307
2014-1-19,46,34,21,30,25,18,92,71,49,29.88,29.74,29.62,10,10,10,23,11,31,0.00,3,,272
2014-1-20,35,14,-8,31,12,-18,92,78,64,30.59,30.15,29.84,10,6,0,32,15,40,0.02,5,Snow,332
2014-1-21,20,4,-12,14,-5,-18,79,68,57,30.59,30.29,30.02,10,9,2,23,8,28,T,6,Snow,215
2014-1-22,19,6,-8,14,-1,-15,84,72,59,30.72,30.30,30.01,10,7,1,31,18,39,0.01,5,Snow,340
2014-1-23,11,-1,-14,-3,-10,-19,78,64,50,30.90,30.70,30.26,10,10,10,24,10,28,0.00,1,,263
2014-1-24,39,25,10,34,23,-3,85,68,50,30.20,29.82,29.62,10,10,10,25,14,32,T,7,Rain,276
2014-1-25,40,27,13,31,16,5,89,74,59,30.09,29.84,29.43,10,8,2,30,14,40,T,7,Snow,300
2014-1-26,40,19,-2,31,13,-10,78,70,62,30.35,29.76,29.41,10,7,0,43,23,55,T,7,Snow,332
2014-1-27,0,-4,-9,-10,-13,-17,75,67,58,30.58,30.51,30.33,10,10,6,28,11,33,T,2,,314
2014-1-28,9,0,-9,-5,-9,-14,83,69,55,30.51,30.39,30.22,10,10,10,16,7,22,0.00,0,,275
2014-1-29,44,22,-1,15,5,-7,75,51,27,30.20,29.82,29.47,10,10,10,23,10,30,0.00,3,,206
2014-1-30,36,18,0,26,10,-4,96,70,44,30.18,29.70,29.34,10,7,1,26,13,35,0.10,6,Rain-Snow,354
2014-1-31,20,10,-1,10,3,-6,87,72,56,30.21,30.10,29.97,10,10,10,14,7,18,0.00,4,,195